Fort Bridger, WY

11:09 AM MDT on August 31, 2016 (GMT -0600)
Fort Bridger

Weather History for KFBR - December, 2013

Change the Weather History Date:

Thursday, December 19, 2013

  Actual Average (KEVW) Record (KEVW)
Temperature  
Mean Temperature 28 °F 20 °F  
Max Temperature 35 °F 27 °F 41 °F (2015)
Min Temperature 19 °F 13 °F -4 °F (2006)
Degree Days  
Heating Degree Days 38 45  
Month to date heating degree days 835  
Since 1 July heating degree days 2944  
Cooling Degree Days 0 0  
Month to date cooling degree days 0  
Year to date cooling degree days 162  
Moisture  
Dew Point 29 °F    
Average Humidity 97    
Maximum Humidity 100    
Minimum Humidity 75    
Precipitation  
Precipitation 0.00 in 0.01 in 0.11 in (2010)
Month to date precipitation 0.38  
Year to date precipitation 11.93  
Sea Level Pressure  
Sea Level Pressure 29.68 in    
Wind  
Wind Speed 6 mph (WNW)    
Max Wind Speed 15 mph    
Max Gust Speed -    
Visibility 3 miles    
Events Snow    
T = Trace of Precipitation, MM = Missing Value Source: NWS Daily Summary

Daily Weather History Graph

Daily Weather History Graph

Search for Another Location

Airport or City:

Trip Planner

Search our weather history database for the weather conditions in past years. The results will help you decide how hot, cold, wet, or windy it might be!

Date:

Astronomy

Dec. 19, 2013 Rise Set
Actual Time 7:43 AM MST 4:54 PM MST
Civil Twilight 7:12 AM MST 5:25 PM MST
Nautical Twilight 6:37 AM MST 6:00 PM MST
Astronomical Twilight 6:03 AM MST 6:34 PM MST
Moon 7:24 PM MST (12/19) 9:02 AM MST (12/19)
Length of Visible Light 10h 13m
Length of Day
9h 11m
Waning Gibbous, 95% of the Moon is Illuminated
Dec 19
Waning Gibbous
Dec 25
Last Quarter
Jan 1
New
Jan 7
First Quarter
Jan 15
Full

Hourly Weather History & Observations

Time (MST) Temp. Windchill Dew Point Humidity Pressure Visibility Wind Dir Wind Speed Gust Speed Precip Events Conditions
12:15 AM 35.6 °F - 28.4 °F 75% 29.72 in 10.0 mi Calm Calm - N/A   Overcast
12:35 AM 35.4 °F - 28.0 °F 75% 29.71 in 10.0 mi Calm Calm - N/A   Overcast
1:30 AM 34.5 °F 31.6 °F 28.2 °F 78% 29.67 in 10.0 mi ENE 3.5 mph - N/A   Overcast
2:35 AM 33.3 °F 28.9 °F 30.7 °F 90% 29.66 in 7.0 mi North 4.6 mph - N/A   Overcast
2:55 AM 32.0 °F - 30.0 °F 92% 29.66 in 1.5 mi Calm Calm - N/A Snow Light Snow
3:15 AM 32.0 °F - 31.6 °F 99% 29.64 in 1.2 mi Calm Calm - N/A Snow Light Snow
3:35 AM 32.2 °F 28.9 °F 32.0 °F 99% 29.63 in 2.5 mi NW 3.5 mph - N/A Snow Light Snow
3:55 AM 32.4 °F 26.0 °F 32.2 °F 99% 29.62 in 1.8 mi West 6.9 mph - N/A Snow Light Snow
4:15 AM 32.2 °F 27.7 °F 32.2 °F 100% 29.60 in 1.5 mi SE 4.6 mph - N/A Snow Light Snow
4:35 AM 32.2 °F - 32.0 °F 99% 29.60 in 1.2 mi Calm Calm - N/A Snow Snow
4:55 AM 32.7 °F 27.3 °F 32.5 °F 99% 29.60 in 1.0 mi SSW 5.8 mph - N/A Snow Snow
5:15 AM 32.0 °F 27.5 °F 32.0 °F 100% 29.59 in 0.8 mi SW 4.6 mph - N/A Snow Snow
5:35 AM 31.8 °F 26.2 °F 31.8 °F 100% 29.59 in 0.8 mi NW 5.8 mph - N/A Snow Snow
5:55 AM 31.5 °F 26.8 °F 31.5 °F 100% 29.58 in 0.5 mi WNW 4.6 mph - N/A Snow Snow
6:15 AM 31.8 °F 27.3 °F 31.8 °F 100% 29.58 in 0.8 mi West 4.6 mph - N/A Snow Snow
6:35 AM 32.0 °F 27.5 °F 32.0 °F 100% 29.58 in 0.8 mi WNW 4.6 mph - N/A Snow Snow
6:55 AM 33.4 °F 29.1 °F 33.4 °F 100% 29.58 in 0.8 mi West 4.6 mph - N/A Snow Light Snow
7:15 AM 33.6 °F 28.4 °F 33.6 °F 100% 29.58 in 0.8 mi West 5.8 mph - N/A Snow Snow
7:35 AM 33.4 °F 28.1 °F 33.4 °F 100% 29.58 in 1.0 mi WNW 5.8 mph - N/A Snow Light Snow
7:55 AM 33.4 °F 27.3 °F 33.4 °F 100% 29.59 in 0.2 mi West 6.9 mph - N/A Snow Light Snow
8:15 AM 33.6 °F 27.5 °F 33.6 °F 100% 29.59 in 0.5 mi WNW 6.9 mph - N/A Snow Light Snow
8:35 AM 33.8 °F 26.4 °F 33.8 °F 100% 29.60 in 0.2 mi West 9.2 mph - N/A Snow Snow
8:55 AM 33.6 °F 25.0 °F 33.6 °F 100% 29.60 in 0.2 mi West 11.5 mph - N/A Snow Light Snow
9:15 AM 33.3 °F 24.6 °F 33.3 °F 100% 29.61 in 0.2 mi WNW 11.5 mph - N/A Snow Light Snow
9:35 AM 31.1 °F 24.5 °F 31.1 °F 100% 29.62 in 0.2 mi NNW 6.9 mph - N/A Snow Light Snow
9:55 AM 31.1 °F 24.5 °F 31.1 °F 100% 29.62 in 0.2 mi WNW 6.9 mph - N/A Snow Light Snow
10:15 AM 32.0 °F 25.6 °F 32.0 °F 100% 29.64 in 0.2 mi NW 6.9 mph - N/A Snow Light Snow
10:35 AM 33.1 °F 27.7 °F 33.1 °F 100% 29.65 in 0.2 mi NW 5.8 mph - N/A Snow Light Snow
10:55 AM 33.3 °F 25.7 °F 33.3 °F 100% 29.66 in 0.5 mi West 9.2 mph - N/A Snow Light Snow
11:15 AM 33.3 °F 24.1 °F 33.1 °F 99% 29.66 in 0.2 mi WNW 12.7 mph - N/A Snow Light Snow
11:35 AM 33.1 °F 24.4 °F 32.9 °F 99% 29.66 in 0.2 mi WNW 11.5 mph - N/A Snow Light Snow
11:55 AM 33.3 °F 25.1 °F 33.1 °F 99% 29.66 in 0.2 mi WNW 10.4 mph - N/A Snow Light Snow
12:15 PM 33.3 °F 24.6 °F 32.9 °F 99% 29.66 in 0.5 mi WNW 11.5 mph - N/A Snow Light Snow
12:35 PM 33.3 °F 24.6 °F 32.7 °F 98% 29.66 in 1.0 mi WNW 11.5 mph - N/A Snow Light Snow
12:55 PM 33.1 °F 24.9 °F 32.4 °F 97% 29.66 in 2.0 mi NW 10.4 mph - N/A Snow Light Snow
1:15 PM 33.3 °F 24.6 °F 32.4 °F 96% 29.66 in 1.8 mi WNW 11.5 mph - N/A Snow Light Snow
1:35 PM 32.4 °F 23.5 °F 32.0 °F 99% 29.66 in 2.5 mi WNW 11.5 mph - N/A Snow Light Snow
1:55 PM 32.0 °F 23.0 °F 31.3 °F 97% 29.66 in 1.0 mi NW 11.5 mph - N/A Snow Light Snow
2:15 PM 32.0 °F 22.5 °F 31.1 °F 96% 29.67 in 4.0 mi NW 12.7 mph - N/A Snow Light Snow
2:35 PM 31.5 °F 20.9 °F 30.6 °F 96% 29.68 in 1.8 mi WNW 15.0 mph - N/A Snow Light Snow
2:55 PM 31.1 °F 21.9 °F 30.2 °F 96% 29.68 in 2.0 mi NW 11.5 mph - N/A Snow Light Snow
3:15 PM 31.1 °F 21.9 °F 30.0 °F 96% 29.68 in 0.5 mi WNW 11.5 mph - N/A Snow Light Snow
3:35 PM 30.2 °F 20.8 °F 29.3 °F 96% 29.69 in 4.0 mi WNW 11.5 mph - N/A Snow Light Snow
3:55 PM 29.8 °F 20.3 °F 28.4 °F 94% 29.70 in 4.0 mi WNW 11.5 mph - N/A Snow Light Snow
4:15 PM 29.7 °F 19.6 °F 27.5 °F 92% 29.70 in 10.0 mi WNW 12.7 mph - N/A   Overcast
4:35 PM 29.3 °F 19.6 °F 27.3 °F 92% 29.72 in 10.0 mi WNW 11.5 mph - N/A   Overcast
4:55 PM 29.1 °F 21.3 °F 27.3 °F 93% 29.74 in 10.0 mi West 8.1 mph - N/A   Overcast
5:15 PM 29.3 °F 20.8 °F 27.1 °F 92% 29.74 in 10.0 mi West 9.2 mph - N/A   Overcast
5:35 PM 28.9 °F 19.8 °F 27.1 °F 93% 29.74 in 7.0 mi West 10.4 mph - N/A   Overcast
5:55 PM 28.4 °F 19.7 °F 27.0 °F 94% 29.74 in 7.0 mi West 9.2 mph - N/A Snow Light Snow
6:15 PM 27.5 °F 19.3 °F 26.4 °F 96% 29.74 in 7.0 mi West 8.1 mph - N/A   Overcast
6:35 PM 26.2 °F 18.6 °F 25.0 °F 95% 29.73 in 10.0 mi West 6.9 mph - N/A   Overcast
6:55 PM 24.6 °F 15.8 °F 23.9 °F 97% 29.74 in 10.0 mi SW 8.1 mph - N/A   Mostly Cloudy
7:15 PM 26.4 °F 16.6 °F 25.5 °F 96% 29.73 in 10.0 mi WSW 10.4 mph - N/A   Mostly Cloudy
7:35 PM 26.2 °F 16.4 °F 25.2 °F 96% 29.74 in 10.0 mi West 10.4 mph - N/A   Overcast
7:55 PM 26.2 °F 17.1 °F 25.2 °F 96% 29.74 in 10.0 mi West 9.2 mph - N/A   Overcast
8:15 PM 25.5 °F 16.9 °F 24.8 °F 97% 29.75 in 7.0 mi West 8.1 mph - N/A   Overcast
8:35 PM 25.7 °F 16.4 °F 24.8 °F 96% 29.75 in 4.0 mi West 9.2 mph - N/A Snow Light Snow
8:55 PM 25.7 °F 17.1 °F 25.2 °F 98% 29.76 in 2.0 mi WNW 8.1 mph - N/A Snow Light Snow
9:15 PM 25.7 °F 16.4 °F 25.3 °F 99% 29.76 in 0.5 mi WNW 9.2 mph - N/A Snow Snow
9:35 PM 25.3 °F 15.3 °F 25.0 °F 99% 29.77 in 1.0 mi NW 10.4 mph - N/A Snow Light Snow
9:55 PM 25.3 °F 16.0 °F 25.0 °F 99% 29.77 in 1.0 mi NW 9.2 mph - N/A Snow Light Snow
10:15 PM 25.3 °F 16.0 °F 24.8 °F 98% 29.78 in 1.0 mi NW 9.2 mph - N/A Snow Snow
10:35 PM 25.2 °F 14.4 °F 24.8 °F 99% 29.78 in 1.0 mi NW 11.5 mph - N/A Snow Snow
10:55 PM 21.6 °F 13.0 °F 20.8 °F 97% 29.79 in 3.0 mi North 6.9 mph - N/A Snow Light Snow
11:15 PM 20.5 °F 14.0 °F 19.8 °F 97% 29.79 in 4.0 mi North 4.6 mph - N/A Snow Light Snow
11:35 PM 20.3 °F - 19.4 °F 96% 29.79 in 5.0 mi Calm Calm - N/A Snow Light Snow
11:55 PM 19.6 °F 13.0 °F 18.9 °F 97% 29.79 in 5.0 mi NNW 4.6 mph - N/A Snow Light Snow